Weather in Ladoga

Russia / Saint-Petersburg and Leningrad Oblast     59°37′43″N   30°30′14″E
temp.,
°C
wind,
m/s
gust,
m/s
humid.,
%
clouds,
%
prec.,
mm/h
press.,
hPa
HPBL,
m
21 april, wed
wed2100:00+5ese236898 0.0 101566
03:00+4ese2581100 0.0 1014137
06:00+4ese258298 0.0 1011193
09:00+4ene2495100 0.1 1009643
12:00+4nne2294100 0.2 1007700
15:00+4nne2396100 0.8 1005550
18:00+3nnw1396100 0.1 1004397
21:00+3w1289100 0.1 1004234
22 april, thu
thu2200:00+3sse119295 0.0 100327
03:00+2sse239631 0.0 100357
06:00+4sse269336 0.0 1003169
09:00+7sw366715 0.0 1004381
12:00+12sw574619 0.0 10051366
15:00+13sw4745100 0.0 10051914
18:00+11sw576591 0.1 1006870
21:00+8s1178100 0.1 100515
23 april, fri
fri2300:00+7sse2593100 2.3 1005306
03:00+5ssw4788100 2.4 1005372
06:00+4s3891100 0.0 1006352
09:00+6s586711 0.0 1007899
12:00+8ssw7105398 0.1 10071966
15:00+9s694496 0.1 10082154
18:00+8ssw595795 0.3 10091485
21:00+5s377278 0.3 1009189
24 april, sat
sat2400:00+3sse378290 0.0 1009147
03:00+2s2383100 0.0 100883
06:00+2s2283100 0.0 100853
09:00+5w1170100 0.0 1007357
12:00+8n1157100 0.1 10071115
15:00+8nne3258100 0.4 10061131
18:00+7nnw3467100 0.7 1006843
21:00+4nw2381100 0.9 1006249
25 april, sun
sun2500:00+4wnw259398 0.0 1005250
03:00+2w258897 0.0 1004173
06:00+2w378898 0.0 1004298
09:00+4wnw3685100 0.0 1004534
12:00+5wnw4578100 0.1 1004830
15:00+4nw4690100 0.9 1005620
18:00+4nw4790100 0.4 1006567
21:00+3wnw4985100 0.4 1006510